Weather History for Indianapolis, IN

Change the Weather History Date:

Sunday, February 17, 2013

  Actual Average (KEYE) Record (KEYE)
Temperature  
Mean Temperature 20 °F 32 °F  
Max Temperature 31 °F 41 °F 62 °F (2011)
Min Temperature 10 °F 24 °F 11 °F (2013)
Degree Days  
Heating Degree Days 44 33  
Month to date heating degree days 587  
Since 1 July heating degree days 3788  
Cooling Degree Days 0 0  
Month to date cooling degree days 0  
Year to date cooling degree days 0  
Moisture  
Dew Point 7 °F    
Average Humidity 56    
Maximum Humidity 79    
Minimum Humidity 31    
Precipitation  
Precipitation 0.00 in 0.08 in 0.69 in (2008)
Month to date precipitation 1.23  
Year to date precipitation 3.44  
Sea Level Pressure  
Sea Level Pressure 30.16 in    
Wind  
Wind Speed 5 mph (SSW)    
Max Wind Speed 10 mph    
Max Gust Speed -    
Visibility 10 miles    
Events      
T = Trace of Precipitation, MM = Missing Value Source: NWS Daily Summary

Daily Weather History Graph

Daily Weather History Graph

Search for Another Location

Airport:

Trip Planner

Search our weather history database for the weather conditions in past years. The results will help you decide how hot, cold, wet, or windy it might be!

Date:

Astronomy

Feb. 17, 2013 Rise Set
Actual Time 7:34 AM EST 6:23 PM EST
Civil Twilight 7:07 AM EST 6:51 PM EST
Nautical Twilight 6:35 AM EST 7:22 PM EST
Astronomical Twilight 6:04 AM EST 7:54 PM EST
Moon 11:27 AM EST (2/17) 1:18 AM EST (2/17)
Length of Visible Light 11h 43m
Length of Day
10h 48m
Waxing Crescent, 49% of the Moon is Illuminated
Feb 17
Waxing Crescent
Feb 17
First Quarter
Feb 25
Full
Mar 4
Last Quarter
Mar 11
New

Hourly Weather History & Observations

Time (EST) Temp. Windchill Dew Point Humidity Pressure Visibility Wind Dir Wind Speed Gust Speed Precip Events Conditions
12:15 AM 19.0 °F 7.5 °F 11.5 °F 72% 30.13 in 10.0 mi NNW 10.4 mph - N/A   Overcast
12:35 AM 18.5 °F 6.8 °F 10.9 °F 72% 30.12 in 10.0 mi NNW 10.4 mph - N/A   Mostly Cloudy
12:55 AM 17.6 °F 8.2 °F 9.3 °F 70% 30.12 in 10.0 mi NW 6.9 mph - N/A   Scattered Clouds
1:15 AM 16.3 °F 10.8 °F 8.6 °F 72% 30.13 in 10.0 mi WNW 3.5 mph - N/A   Clear
1:35 AM 16.2 °F 9.0 °F 8.1 °F 70% 30.13 in 10.0 mi WNW 4.6 mph - N/A   Clear
1:55 AM 16.0 °F 6.3 °F 8.2 °F 72% 30.13 in 10.0 mi NNW 6.9 mph - N/A   Clear
2:15 AM 15.4 °F 6.8 °F 8.6 °F 74% 30.13 in 10.0 mi NNW 5.8 mph - N/A   Clear
2:35 AM 14.5 °F 7.1 °F 8.6 °F 77% 30.13 in 10.0 mi North 4.6 mph - N/A   Clear
2:55 AM 14.0 °F 8.2 °F 8.4 °F 78% 30.13 in 10.0 mi NNW 3.5 mph - N/A   Clear
3:15 AM 14.0 °F 6.5 °F 8.4 °F 78% 30.14 in 10.0 mi NNW 4.6 mph - N/A   Clear
3:35 AM 13.8 °F 8.0 °F 8.4 °F 79% 30.14 in 10.0 mi NW 3.5 mph - N/A   Clear
3:55 AM 13.5 °F 5.8 °F 7.7 °F 78% 30.14 in 10.0 mi NNW 4.6 mph - N/A   Clear
4:15 AM 13.1 °F 5.4 °F 7.2 °F 77% 30.14 in 10.0 mi NW 4.6 mph - N/A   Clear
4:35 AM 12.9 °F 5.2 °F 6.8 °F 77% 30.14 in 10.0 mi NW 4.6 mph - N/A   Clear
4:55 AM 12.0 °F 5.9 °F 5.7 °F 76% 30.14 in 10.0 mi NW 3.5 mph - N/A   Clear
5:15 AM 11.3 °F 5.1 °F 5.0 °F 76% 30.15 in 10.0 mi West 3.5 mph - N/A   Clear
5:35 AM 11.7 °F 3.7 °F 5.9 °F 78% 30.15 in 10.0 mi NNW 4.6 mph - N/A   Clear
5:55 AM 12.0 °F 5.9 °F 5.5 °F 75% 30.16 in 10.0 mi NW 3.5 mph - N/A   Clear
6:15 AM 10.4 °F - 4.1 °F 76% 30.17 in 10.0 mi Calm Calm - N/A   Clear
6:55 AM 10.2 °F - 4.1 °F 76% 30.18 in 10.0 mi Calm Calm - N/A   Clear
7:15 AM 10.2 °F - 3.7 °F 75% 30.18 in 10.0 mi Calm Calm - N/A   Clear
7:35 AM 10.4 °F - 3.9 °F 75% 30.18 in 10.0 mi Calm Calm - N/A   Clear
7:55 AM 10.4 °F - 4.3 °F 76% 30.20 in 10.0 mi Calm Calm - N/A   Clear
8:15 AM 11.5 °F - 5.5 °F 77% 30.20 in 10.0 mi Calm Calm - N/A   Clear
8:35 AM 13.1 °F - 6.3 °F 74% 30.21 in 10.0 mi Calm Calm - N/A   Clear
8:55 AM 14.5 °F - 6.1 °F 69% 30.21 in 10.0 mi Calm Calm - N/A   Clear
9:15 AM 16.0 °F - 6.4 °F 66% 30.21 in 10.0 mi Calm Calm - N/A   Clear
9:35 AM 17.2 °F - 6.6 °F 63% 30.21 in 10.0 mi Calm Calm - N/A   Clear
9:55 AM 18.1 °F - 6.3 °F 60% 30.22 in 10.0 mi Calm Calm - N/A   Clear
10:15 AM 19.0 °F - 5.9 °F 57% 30.22 in 10.0 mi Calm Calm - N/A   Clear
10:35 AM 20.1 °F - 6.3 °F 55% 30.22 in 10.0 mi Calm Calm - N/A   Clear
10:55 AM 21.7 °F 17.0 °F 8.1 °F 56% 30.22 in 10.0 mi SSE 3.5 mph - N/A   Clear
11:15 AM 22.5 °F - 7.7 °F 53% 30.22 in 10.0 mi Calm Calm - N/A   Clear
11:35 AM 23.2 °F - 6.3 °F 48% 30.23 in 10.0 mi Calm Calm - N/A   Clear
11:55 AM 23.7 °F - 6.3 °F 47% 30.22 in 10.0 mi Calm Calm - N/A   Clear
12:15 PM 25.0 °F - 5.0 °F 43% 30.22 in 10.0 mi Calm Calm - N/A   Clear
12:35 PM 25.7 °F 20.1 °F 6.1 °F 43% 30.21 in 10.0 mi SE 4.6 mph - N/A   Clear
12:55 PM 26.4 °F 18.9 °F 5.2 °F 40% 30.21 in 10.0 mi SSE 6.9 mph - N/A   Clear
1:15 PM 27.3 °F 20.9 °F 6.6 °F 42% 30.20 in 10.0 mi SSW 5.8 mph - N/A   Clear
1:55 PM 27.5 °F 21.1 °F 3.9 °F 37% 30.19 in 10.0 mi South 5.8 mph - N/A   Clear
2:15 PM 29.1 °F 22.1 °F 4.6 °F 35% 30.19 in 10.0 mi WSW 6.9 mph - N/A   Clear
2:35 PM 29.3 °F 23.2 °F 5.5 °F 37% 30.19 in 10.0 mi South 5.8 mph - N/A   Clear
2:55 PM 29.5 °F 24.5 °F 3.4 °F 33% 30.18 in 10.0 mi SW 4.6 mph - N/A   Clear
3:15 PM 30.0 °F 23.2 °F 4.3 °F 34% 30.18 in 10.0 mi SW 6.9 mph - N/A   Clear
3:35 PM 30.4 °F 23.6 °F 4.3 °F 33% 30.17 in 10.0 mi SW 6.9 mph - N/A   Clear
3:55 PM 30.9 °F 26.2 °F 3.7 °F 32% 30.17 in 10.0 mi WSW 4.6 mph - N/A   Clear
4:15 PM 30.9 °F 25.2 °F 4.3 °F 32% 30.16 in 10.0 mi WSW 5.8 mph - N/A   Clear
4:35 PM 31.1 °F 25.4 °F 3.7 °F 31% 30.16 in 10.0 mi SSW 5.8 mph - N/A   Clear
4:55 PM 31.1 °F 24.5 °F 4.8 °F 33% 30.16 in 10.0 mi SW 6.9 mph - N/A   Clear
5:15 PM 30.7 °F 24.9 °F 5.5 °F 35% 30.16 in 10.0 mi SSW 5.8 mph - N/A   Clear
5:35 PM 30.4 °F 23.6 °F 5.7 °F 35% 30.16 in 10.0 mi SSW 6.9 mph - N/A   Clear
5:55 PM 30.2 °F 25.4 °F 5.5 °F 35% 30.15 in 10.0 mi South 4.6 mph - N/A   Clear
6:15 PM 29.3 °F 25.6 °F 7.7 °F 40% 30.15 in 10.0 mi South 3.5 mph - N/A   Clear
6:35 PM 28.4 °F 23.3 °F 10.8 °F 48% 30.14 in 10.0 mi SSE 4.6 mph - N/A   Clear
6:55 PM 28.2 °F - 11.1 °F 49% 30.15 in 10.0 mi Calm Calm - N/A   Clear
7:15 PM 28.2 °F 24.4 °F 9.1 °F 45% 30.14 in 10.0 mi SE 3.5 mph - N/A   Clear
7:35 PM 27.1 °F 21.8 °F 11.3 °F 51% 30.14 in 10.0 mi SE 4.6 mph - N/A   Clear
7:55 PM 28.0 °F 22.8 °F 6.8 °F 41% 30.14 in 10.0 mi SE 4.6 mph - N/A   Clear
8:15 PM 27.5 °F 23.6 °F 6.6 °F 41% 30.14 in 10.0 mi SE 3.5 mph - N/A   Clear
8:35 PM 27.5 °F 22.2 °F 8.1 °F 44% 30.14 in 10.0 mi SE 4.6 mph - N/A   Clear
8:55 PM 27.3 °F 22.0 °F 6.8 °F 42% 30.14 in 10.0 mi SE 4.6 mph - N/A   Clear
9:15 PM 26.8 °F 20.2 °F 8.2 °F 46% 30.14 in 10.0 mi SE 5.8 mph - N/A   Clear
9:35 PM 26.6 °F 20.0 °F 9.1 °F 48% 30.15 in 10.0 mi SE 5.8 mph - N/A   Clear
9:55 PM 26.6 °F 20.0 °F 10.2 °F 50% 30.15 in 10.0 mi SE 5.8 mph - N/A   Clear
10:15 PM 27.1 °F 19.7 °F 9.7 °F 48% 30.14 in 10.0 mi SE 6.9 mph - N/A   Clear
10:35 PM 27.1 °F 18.9 °F 10.0 °F 49% 30.13 in 10.0 mi SE 8.1 mph - N/A   Clear
10:55 PM 26.8 °F 18.5 °F 10.8 °F 51% 30.13 in 10.0 mi SE 8.1 mph - N/A   Clear
11:15 PM 26.6 °F 19.1 °F 10.8 °F 51% 30.13 in 10.0 mi SE 6.9 mph - N/A   Clear
11:35 PM 26.6 °F 18.2 °F 10.9 °F 52% 30.13 in 10.0 mi SSE 8.1 mph - N/A   Clear
11:55 PM 26.6 °F 18.2 °F 11.1 °F 52% 30.13 in 10.0 mi SSE 8.1 mph - N/A   Clear